TimeEDT,TemperatureF,Dew PointF,Humidity,Sea Level PressureIn,VisibilityMPH,Wind Direction,Wind SpeedMPH,Gust SpeedMPH,PrecipitationIn,Events,Conditions,WindDirDegrees,DateUTC
12:17 AM,42.3,40.3,93,29.96,10.0,NW,5.8,-,N/A,,Overcast,320,2013-09-22 04:17:00
12:36 AM,42.3,40.5,93,29.96,10.0,NW,5.8,-,N/A,,Overcast,320,2013-09-22 04:36:00
12:57 AM,42.3,40.5,93,29.96,10.0,NW,5.8,-,N/A,,Overcast,320,2013-09-22 04:57:00
1:16 AM,42.4,40.1,91,29.96,10.0,NW,6.9,-,N/A,,Overcast,320,2013-09-22 05:16:00
1:37 AM,42.3,39.4,90,29.97,10.0,NNW,6.9,-,N/A,,Overcast,330,2013-09-22 05:37:00
1:57 AM,41.9,39.2,90,29.97,10.0,NNW,6.9,-,N/A,,Overcast,330,2013-09-22 05:57:00
2:16 AM,42.1,39.2,90,29.98,10.0,NW,5.8,-,N/A,,Overcast,320,2013-09-22 06:16:00
2:37 AM,41.9,39.2,90,29.98,10.0,NNW,5.8,-,N/A,,Overcast,330,2013-09-22 06:37:00
2:56 AM,41.5,39.0,91,29.98,10.0,NW,4.6,-,N/A,,Overcast,320,2013-09-22 06:56:00
3:17 AM,41.9,39.2,90,29.98,10.0,NNW,3.5,-,N/A,,Overcast,340,2013-09-22 07:17:00
3:37 AM,41.9,39.2,90,29.99,10.0,Calm,Calm,-,N/A,,Overcast,0,2013-09-22 07:37:00
3:56 AM,41.9,39.2,90,29.99,10.0,NW,3.5,-,N/A,,Overcast,320,2013-09-22 07:56:00
4:17 AM,41.9,39.2,90,29.99,10.0,NW,4.6,-,N/A,,Overcast,320,2013-09-22 08:17:00
4:36 AM,41.9,39.4,91,29.99,10.0,NW,6.9,-,N/A,,Overcast,310,2013-09-22 08:36:00
4:56 AM,41.9,39.2,90,30.00,10.0,NNW,5.8,-,N/A,,Overcast,330,2013-09-22 08:56:00
5:17 AM,41.9,39.4,91,30.00,10.0,NW,4.6,-,N/A,,Overcast,320,2013-09-22 09:17:00
5:36 AM,42.1,39.6,91,30.01,10.0,NW,3.5,-,N/A,,Overcast,310,2013-09-22 09:36:00
5:57 AM,42.3,39.6,90,30.01,10.0,NW,4.6,-,N/A,,Overcast,320,2013-09-22 09:57:00
6:50 AM,42.8,39.2,87,30.03,10.0,NW,3.5,-,N/A,,Overcast,310,2013-09-22 10:50:00
7:50 AM,42.8,39.2,87,30.04,10.0,NNW,3.5,-,N/A,,Overcast,330,2013-09-22 11:50:00
8:50 AM,42.8,39.2,87,30.06,10.0,Calm,Calm,-,N/A,,Overcast,0,2013-09-22 12:50:00
9:50 AM,44.6,41.0,87,30.07,10.0,North,6.9,-,N/A,,Overcast,10,2013-09-22 13:50:00
10:50 AM,44.6,41.0,87,30.09,10.0,NNE,3.5,-,N/A,,Overcast,20,2013-09-22 14:50:00
11:50 AM,46.4,39.2,76,30.09,10.0,NNE,8.1,-,N/A,,Overcast,20,2013-09-22 15:50:00
12:50 PM,48.2,39.2,71,30.09,10.0,NNE,9.2,-,N/A,,Overcast,20,2013-09-22 16:50:00
1:50 PM,48.2,37.4,66,30.09,10.0,NE,9.2,-,N/A,,Overcast,50,2013-09-22 17:50:00
2:50 PM,48.2,39.2,71,30.08,10.0,ENE,4.6,-,N/A,,Overcast,60,2013-09-22 18:50:00
3:50 PM,48.2,39.2,71,30.08,10.0,NNE,5.8,-,N/A,,Overcast,30,2013-09-22 19:50:00
4:50 PM,48.2,39.2,71,30.08,10.0,NNE,3.5,-,N/A,,Overcast,20,2013-09-22 20:50:00
5:50 PM,48.2,39.2,71,30.06,10.0,ENE,5.8,-,N/A,,Overcast,70,2013-09-22 21:50:00
6:50 PM,48.2,39.2,71,30.06,10.0,East,4.6,-,N/A,,Overcast,90,2013-09-22 22:50:00
7:50 PM,46.4,37.4,71,30.07,10.0,ENE,3.5,-,N/A,,Overcast,70,2013-09-22 23:50:00
8:50 PM,44.6,39.2,81,30.08,10.0,ESE,4.6,-,N/A,,Clear,120,2013-09-23 00:50:00
9:50 PM,42.8,37.4,81,30.09,10.0,ESE,4.6,-,N/A,,Clear,120,2013-09-23 01:50:00
10:17 PM,43.0,37.8,82,30.09,10.0,ESE,4.6,-,N/A,,Clear,120,2013-09-23 02:17:00
10:37 PM,42.8,37.8,82,30.09,10.0,ESE,5.8,-,N/A,,Clear,120,2013-09-23 02:37:00
10:56 PM,42.3,37.8,84,30.08,10.0,ESE,5.8,-,N/A,,Clear,120,2013-09-23 02:56:00
11:17 PM,41.9,37.6,85,30.09,10.0,ESE,4.6,-,N/A,,Clear,120,2013-09-23 03:17:00
11:36 PM,41.4,37.4,86,30.09,10.0,SE,3.5,-,N/A,,Clear,130,2013-09-23 03:36:00
11:57 PM,40.3,37.0,88,30.09,10.0,Calm,Calm,-,N/A,,Clear,0,2013-09-23 03:57:00